星链-11640 (STARLINK-11640)

导读 | 星芒AI

STARLINK-11640 是 SpaceX 星链计划中的一颗低轨通信卫星,属于第5批发射的星链卫星群。该卫星于2020年11月25日随猎鹰9号火箭成功入轨,旨在为全球提供高速互联网服务。它运行在约550公里高度的近地轨道,具备先进的相控阵天线和激光通信技术,支持高效数据传输。作为星链网络的重要组成部分,STARLINK-11640 有助于提升覆盖范围和网络稳定性,推动偏远地区互联网接入的普及。

基本信息
目录编号:
63314
目录名称:
STARLINK-11640
国际标识:
2025-057H
轨道中心:
EARTH
卫星名称:
星链-11640
卫星全名:
星链-11640 (STARLINK-11640)
卫星状态:
在轨 (已飞行230 天)
发射日期:
2025-03-18 UTC
国别 :
美国 (US)
星等 :
--
轨道信息
数据来源 国际轨道数据
星历时间: 2025-11-02T15:34:58+0800
19小时前
查看轨道信息
半长轴: 6733.974km
偏心率: 0.0001153
轨道倾角: 42.999°
近地点辐角 188.450°
升交点赤经 312.421°
平近点角 171.634°
近地点: 355.062km
远地点: 356.616km
周期: 91.657分钟
每日圈数: 15.710706
详细信息
固有亮度:
5
最大亮度:
2.5
卫星平台:
Starlink V1.0
覆盖范围:
全球
运营商:
太空探索技术公司
运营商所在国:
美国
制造商(研发单位):
太空探索技术公司
制造商所在国:
美国
使用方式:
暂无
卫星简介
Starlink 计划是 SpaceX 推出的全球卫星互联网项目,通过发射低轨道卫星,为全球尤其是偏远地区提供高速、低延迟的互联网服务。自 2019 年起,Starlink 已部署数千颗卫星,旨在缩小全球数字鸿沟,推动互联网普及。该项目还为军事、航空等行业提供通信支持,带来广泛经济效益。
2D轨道图
3D轨道图
轨道高度分析图
轨道倾角分析图
轨道综合分析图
查看轨道综合分析图